User: anonymous   Login
Location: Unspecified
(0.0000°N, 0.0000°E)
Time: 09:29:43
(UTC+00:00)
Language:

AL-FARABI 1 - Orbit

View from above orbital plane
View from above orbital plane
View from above satellite
View from above satellite

Ground track
Ground track

The orbit data is extracted from the following two-line orbital elements,

1 42016U 17008BW  17327.53525854 +.00003037 +00000-0 +12935-3 0  9992
2 42016 097.4763 028.5776 0007284 035.3061 324.8657 15.23727517042725
Epoch (UTC): 23 November 2017 12:50:46
Eccentricity: 0.0007284
inclination: 97.4763°
perigee height: 489 km
apogee height: 499 km
right ascension of ascending node: 28.5776°
argument of perigee: 35.3061°
revolutions per day: 15.23727517
mean anomaly at epoch: 324.8657°
orbit number at epoch: 4272

The dashed part of the orbit path shows where the satellite is in the earth's shadow,  

DLR